Weather History for Gainesville, GA

Change the Weather History Date:

Tuesday, January 21, 2014

  Actual Average Record
Temperature  
Mean Temperature 36 °F 42 °F  
Max Temperature 50 °F 50 °F 73 °F (1933)
Min Temperature 21 °F 33 °F -8 °F (1985)
Degree Days  
Heating Degree Days 29 23  
Month to date heating degree days 583 499  
Since 1 July heating degree days 1778 1695  
Moisture  
Dew Point 22 °F    
Average Humidity 54    
Maximum Humidity 70    
Minimum Humidity 37    
Precipitation  
Precipitation 0.00 in 0.18 in 2.15 in (1990)
Month to date precipitation 2.88 3.10  
Year to date precipitation 2.88 3.10  
Snow  
Snow 0.00 in - - ()
Month to date snowfall T  
Since 1 July snowfall T  
Snow Depth 0.00 in    
Sea Level Pressure  
Sea Level Pressure 29.83 in    
Wind  
Wind Speed 13 mph (WNW)    
Max Wind Speed 26 mph    
Max Gust Speed 37 mph    
Visibility 10 miles    
Events      
T = Trace of Precipitation, MM = Missing Value Source: NWS Daily Summary

Daily Weather History Graph

Daily Weather History Graph

Search for Another Location

Airport:

Trip Planner

Search our weather history database for the weather conditions in past years. The results will help you decide how hot, cold, wet, or windy it might be!

Date:

Astronomy

Jan. 21, 2014 Rise Set
Actual Time 7:39 AM EST 5:54 PM EST
Civil Twilight 7:12 AM EST 6:21 PM EST
Nautical Twilight 6:41 AM EST 6:51 PM EST
Astronomical Twilight 6:11 AM EST 7:21 PM EST
Moon 11:09 PM EST (1/21) 10:23 AM EST (1/21)
Length of Visible Light 11h 09m
Length of Day
10h 15m
Waning Gibbous, 75% of the Moon is Illuminated
Jan 21
Waning Gibbous
Jan 24
Last Quarter
Jan 30
New
Feb 6
First Quarter
Feb 14
Full

Hourly Weather History & Observations

Time (EST) Temp. Windchill Dew Point Humidity Pressure Visibility Wind Dir Wind Speed Gust Speed Precip Events Conditions
12:53 AM 45.0 °F 41.2 °F 26.1 °F 48% 29.84 in 10.0 mi West 6.9 mph - N/A   Clear
1:53 AM 43.0 °F 38.2 °F 25.0 °F 49% 29.82 in 10.0 mi West 8.1 mph - N/A   Clear
2:53 AM 41.0 °F 36.4 °F 25.0 °F 53% 29.81 in 10.0 mi West 6.9 mph - N/A   Clear
3:53 AM 41.0 °F 38.0 °F 26.1 °F 55% 29.78 in 10.0 mi SW 4.6 mph - N/A   Clear
4:53 AM 39.0 °F 34.8 °F 26.1 °F 60% 29.75 in 10.0 mi WSW 5.8 mph - N/A   Clear
5:53 AM 39.9 °F 35.8 °F 27.0 °F 60% 29.73 in 10.0 mi West 5.8 mph - N/A   Clear
6:53 AM 37.9 °F 32.7 °F 28.9 °F 70% 29.72 in 10.0 mi WSW 6.9 mph - N/A   Clear
7:53 AM 41.0 °F 35.8 °F 28.0 °F 60% 29.71 in 10.0 mi West 8.1 mph - N/A   Partly Cloudy
8:53 AM 44.1 °F 38.6 °F 28.0 °F 53% 29.71 in 10.0 mi West 10.4 mph - N/A   Partly Cloudy
9:53 AM 46.9 °F - 28.0 °F 48% 29.71 in 10.0 mi West 12.7 mph 24.2 mph N/A   Clear
10:53 AM 48.9 °F - 26.1 °F 41% 29.73 in 10.0 mi WNW 17.3 mph 34.5 mph N/A   Clear
11:53 AM 46.9 °F - 23.0 °F 39% 29.73 in 10.0 mi WNW 21.9 mph 34.5 mph N/A   Partly Cloudy
12:53 PM 44.1 °F 35.9 °F 19.9 °F 38% 29.73 in 10.0 mi WNW 19.6 mph 32.2 mph N/A   Scattered Clouds
1:53 PM 46.0 °F 38.5 °F 21.0 °F 37% 29.74 in 10.0 mi West 19.6 mph 33.4 mph N/A   Partly Cloudy
2:53 PM 43.0 °F 34.0 °F 26.1 °F 51% 29.76 in 10.0 mi WNW 21.9 mph 35.7 mph N/A   Scattered Clouds
3:53 PM 39.0 °F 29.9 °F 24.1 °F 55% 29.80 in 10.0 mi WNW 17.3 mph 32.2 mph N/A   Scattered Clouds
4:53 PM 39.0 °F 31.0 °F 21.9 °F 50% 29.83 in 10.0 mi NW 13.8 mph 26.5 mph N/A   Mostly Cloudy
5:53 PM 34.0 °F 23.0 °F 21.9 °F 61% 29.87 in 10.0 mi WNW 18.4 mph 27.6 mph N/A   Overcast
6:48 PM 32.0 °F 22.1 °F 19.4 °F 60% 29.89 in 10.0 mi WNW 13.8 mph - N/A   Overcast
6:53 PM 32.0 °F 22.1 °F 19.9 °F 61% 29.91 in 10.0 mi WNW 13.8 mph - N/A   Overcast
7:37 PM 30.2 °F 18.9 °F 19.4 °F 64% 29.91 in 10.0 mi WNW 16.1 mph 25.3 mph N/A   Overcast
7:53 PM 30.0 °F 17.9 °F 18.0 °F 61% 29.92 in 10.0 mi WNW 18.4 mph 26.5 mph N/A   Overcast
8:05 PM 28.4 °F 17.0 °F 17.6 °F 64% 29.92 in 10.0 mi WNW 15.0 mph 25.3 mph N/A   Overcast
8:53 PM 27.0 °F 13.5 °F 14.0 °F 58% 29.94 in 10.0 mi NW 19.6 mph 32.2 mph N/A   Mostly Cloudy
9:07 PM 26.6 °F 13.1 °F 12.2 °F 55% 29.93 in 10.0 mi WNW 19.6 mph 25.3 mph N/A   Scattered Clouds
9:53 PM 24.1 °F 10.6 °F 12.0 °F 60% 29.96 in 10.0 mi NW 17.3 mph 27.6 mph N/A   Clear
10:53 PM 23.0 °F 13.1 °F 10.9 °F 60% 29.97 in 10.0 mi NW 9.2 mph 19.6 mph N/A   Clear
11:53 PM 21.9 °F 10.4 °F 10.0 °F 60% 29.99 in 10.0 mi NW 11.5 mph 19.6 mph N/A   Clear